Regional Weather Roundup
Issued by NWS Goodland, KS

Home | Current Version | Previous Version | Text Only | Print | Product List | Glossary Off
Versions: 1 2 3 4 5 6 7 8 9 10 11 12 13 14 15 16 17 18 19 20 21 22 23 24 25 26 27 28 29 30 31 32 33 34 35 36 37 38 39 40 41 42 43 44 45 46 47 48 49 50

000
ASUS43 KGLD 210508
RWRGLD

GOODLAND FORECAST AREA HOURLY WEATHER ROUNDUP
NATIONAL WEATHER SERVICE GOODLAND KS
1100 PM MDT WED AUG 20 2014

...OFFICIAL OBSERVATIONS...

CITY           SKY/WX    TMP DP  RH WIND       PRES   REMARKS
GOODLAND KS    PTCLDY    70  60  70 E3        29.86S
HILL CITY KS   MOCLDY    87  61  41 S13G22    29.77R
IMPERIAL NEB   MOCLDY    70  65  84 CALM      29.83R
MCCOOK NEB     CLOUDY    76  61  59 NE9       29.80R
AKRON CO       MOCLDY    67  55  65 N12       29.96S
BURLINGTON CO  CLEAR     68  57  68 NE3       29.90R
LIMON CO       CLOUDY    69  54  58 N17G23    30.03R
$$

...UNOFFICIAL OBSERVATIONS...

CITY           SKY/WX    TMP DP  RH WIND       PRES   REMARKS
COLBY KS       CLEAR     79  64  61 S3        29.83F
LENORA KS        N/A     85  32  15 CALM        N/A
NORTON KS      CLEAR     81  59  47 CALM      29.77S
SHARON SPRINGS   N/A     75  59  58 CALM        N/A
WAKEENEY KS      N/A     85  55  34 MISG        N/A
KIT CARSON CO    N/A     71  55  58 MISG        N/A
YUMA CO          N/A     69  58  68 N14         N/A
$$


USA.gov is the U.S. government's official web portal to all federal, state and local government web resources and services.